Location: *
(3.1500°S, 78.4667°W)
Time: 09:08:50
(UTC+00:00)

Daily predictions for brighter satellites

Satellite Brightness Start Highest point End
(mag) Time Altitude Azimuth Time Altitude Azimuth Time Altitude Azimuth
Cosmos 2026 Rocket 3.9 23:16:34 10° N 23:22:36 72° E 23:28:43 10° S
Milstar 3 Cent rocket 2.1 23:18:14 10° WSW 23:22:50 84° NNW 23:29:10 10° ENE
USA 32 4.0 23:17:50 10° N 23:23:03 79° E 23:28:17 10° S
Meteor 1-31 Rocket 3.8 23:22:49 10° SE 23:25:40 22° E 23:28:30 10° NNE
Helios 1A 4.4 23:23:22 10° ENE 23:26:09 18° ESE 23:28:55 10° SSE
Cosmos 2228 Rocket 3.1 23:22:16 10° N 23:26:36 59° E 23:30:56 10° SSE
Meteor 2-10 Rocket 4.0 23:22:47 10° SSE 23:27:51 42° E 23:33:04 10° NNE
Cosmos 1869 Rocket 3.9 23:30:19 10° SSE 23:34:22 40° E 23:38:25 10° NNE
Ariane H10 2.1 23:29:51 10° W 23:34:46 61° N 23:37:39 11° ENE
ARIANE 5 R/B 3.6 23:31:42 10° W 23:35:04 85° S 23:40:30 10° E
YAOGAN 1 4.1 23:32:51 10° ESE 23:35:23 15° E 23:37:54 10° NE
ISS -3.8 23:35:30 10° NW 23:38:52 88° WSW 23:42:15 10° SE
Delta 202 4.3 23:34:12 10° W 23:39:43 64° NNW 23:46:57 11° ENE
Cosmos 1707 Rocket 3.5 23:36:34 10° N 23:40:51 89° W 23:45:10 10° S
Cosmos 1862 Rocket 3.5 23:36:47 10° N 23:41:11 76° E 23:45:32 10° S
Tiangong -1.8 23:38:26 10° NW 23:41:30 63° SW 23:44:34 10° SE
Cosmos 1758 3.7 23:38:00 10° SSE 23:41:32 37° E 23:45:01 10° NNE
Cosmos 1933 Rocket 3.8 23:37:34 10° S 23:41:52 74° W 23:46:10 10° N
Cosmos 2082 Rocket 2.3 23:41:44 10° S 23:47:10 51° ESE 23:52:34 10° NNE
